Terminal Aerodrome Forecast
Issued by NWS

Home | Current Version | Previous Version | Text Only | Print | Product List | Glossary On
Versions: 1 2 3 4 5 6 7 8 9 10 11 12 13 14 15 16 17 18 19 20 21 22 23 24 25 26 27 28 29 30 31 32 33 34 35 36 37 38 39 40
000
FTAK31 PAFA 152338
TAFAOT
TAF
PAOT 152338Z 1600/1624 05005KT P6SM FEW060 SCT120 BKN220
     FM160500 30008KT P6SM BKN080
     FM160900 34006KT P6SM -SHRA BKN050 OVC100
     FM161600 05008KT P6SM -SHRA SCT020 BKN035=

USA.gov is the U.S. government's official web portal to all federal, state and local government web resources and services.